WESTFORD NEEDLES, 18543

Orbit data source: Space-Track

WESTFORD NEEDLES, 18543 is space debris in LEO originally from a launch on Thu, 09 May 1963 UTC launched from the Air Force Western Test Range (AFWTR). Debris objects in space refer to the collection of defunct objects orbiting the Earth. Examples of debris include non-operational satellites, rocket bodies, and fragments generated from explosions, collisions, or faulty payload assembly.

Loading next visibility...
Identifier
18543, 1963-014DJ
Orbit
LEO
Country
Flag of USUS
Related business
Manufacturer
Unknown
Mission
Spacecraft
Bus & Motor
Unknown
Mass
Unknown
Launch date (UTC)
1963-05-09 (62 years ago)
Launch vehicle
Unknown
Launch site
Air Force Western Test Range (AFWTR)
Object type
Payload
Rocket body
Debris
Shape & HBR
Unknown shape, 1.1 m
Radar Cross Section
Medium (>0.1 m² and <1 m²)

Expand to show TLE details & history
Last TLE update: 6 months ago

TLE from 6 months ago
0 WESTFORD NEEDLES
1 18543U 63014DJ  25106.64614548  .00000370  00000-0  15631+0 0  9992
2 18543  87.5345 186.3710 0417194 257.6454  97.7412  8.66511471 49844
Epoch: 2025-04-16T15:30Z
TLE epoch observation values (Epoch: 2025-04-16T15:30:26.969Z)
Latitude
-0.00006°
Longitude
108.72921°
Altitude
3,710.003 km
Speed
6.264 km/s
True Right ascension
12h 25m 29s
True Declination
0° 00' 00"
Sunlit
Object was in full shadow at epoch
Visualization orbit readout
Latitude
Unknown
Longitude
Unknown
Altitude
Unknown
Speed
Unknown
Apparent Right ascension
Unknown
Apparent Declination
Unknown
Sunlit
N/A
Visualization observer readout
Local Sidereal Time
10:32:05
Azimuth
Unknown
Elevation
Unknown
Doppler factor
Unknown
Orbital elements
Apogee altitude
4,050.036 km
Perigee altitude
3,214.768 km
Semi-major axis
10,010.539 km
Eccentricity
0.04172
Inclination
87.5345°
RAAN
186.371°
Arg. of periapsis
257.6454°
True anomaly
102.44°
Mean anomaly
97.7412°
Eccentric anomaly
100.09454°
Mean motion
2.16699 °/min
Orbital period
166.13 mins
BSTAR
0.15631

Documentation

Showing up to 5 results
|